Location: Anaheim
(33.8350°N, 117.9140°W)
Time: 15:03:04
(UTC-08:00)

Amateur Radio Satellites - All Passes

Search period start: 20 November 2017 14:33
Search period end: 21 November 2017 14:33
Location: Anaheim, 33.8350°N, 117.9140°W

Satellite Date Start Highest point End Downlink Frequencies (MHz)
Time Altitude Azimuth
BEESAT 20 Nov 14:51:23 14:55:53 41° 99° (E) 15:00:21 436.000
AO-7 20 Nov 14:59:01 15:07:11 64° 255° (WSW) 15:15:25 .
ITUPSAT 1 20 Nov 15:00:28 15:05:06 51° 100° (E) 15:09:43 437.325
JUGNU 20 Nov 15:04:17 15:08:08 18° 172° (S) 15:11:57 437.505
DOVE 4 20 Nov 15:06:38 15:09:58 18° 66° (ENE) 15:13:22 437.250
FALCONSAT 3 20 Nov 15:09:58 15:12:58 23° 208° (SSW) 15:15:57 435.103
MOZHAYETS 4 20 Nov 15:19:53 15:24:24 65° 285° (WNW) 15:28:56
CUBESAT XI-V 20 Nov 15:29:43 15:33:55 32° 97° (E) 15:38:07 437.345
ITAMSAT 1 20 Nov 15:49:15 15:53:28 25° 264° (W) 15:57:44 435.822/435.867
NO-84 20 Nov 15:57:16 15:59:45 16° 326° (NW) 16:02:19 435.350 FM
XW-2C 20 Nov 16:18:14 16:20:11 14° 69° (ENE) 16:22:09 145.795 - 145.815
LilacSat-2 20 Nov 16:19:03 16:21:19 16° 70° (ENE) 16:23:35 437.200
YUBILEINY 20 Nov 16:19:11 16:27:54 59° 80° (E) 16:36:33 435.215
XW-2F 20 Nov 16:28:57 16:31:27 18° 70° (ENE) 16:33:58 145.980 - 146.000
BEESAT 20 Nov 16:30:15 16:33:16 17° 293° (WNW) 16:36:17 436.000
ITUPSAT 1 20 Nov 16:40:01 16:42:25 14° 295° (WNW) 16:44:50 437.325
DOVE 4 20 Nov 16:42:27 16:47:08 45° 262° (W) 16:52:06 437.250
SRMSAT 20 Nov 16:48:26 16:51:07 13° 166° (SSE) 16:53:50 437.500
JUGNU 20 Nov 16:52:19 16:56:27 20° 183° (S) 17:00:35 437.505
KAITUO 1B 20 Nov 16:57:07 17:00:21 30° 73° (ENE) 17:03:37 145.475/437.950
CUBESAT XI-V 20 Nov 17:07:33 17:11:01 21° 291° (WNW) 17:14:30 437.345
XW-2D 20 Nov 17:09:55 17:13:37 74° 76° (ENE) 17:17:21 145.860 - 145.880
CUTE-I 20 Nov 17:15:22 17:20:40 67° 74° (ENE) 17:26:00 437.470
KKS-1 20 Nov 17:16:28 17:20:55 75° 284° (WNW) 17:25:20 437.445
XW-2B 20 Nov 17:24:43 17:28:25 71° 258° (WSW) 17:32:10 145.730 - 145.750
HO-68 20 Nov 17:34:43 17:41:31 48° 69° (ENE) 17:48:20 435.675
RS-15 20 Nov 17:37:28 17:49:06 53° 109° (ESE) 18:00:46 29.354- 29.394
CUTE 1.7 + AOD 2 20 Nov 17:41:08 17:44:54 33° 73° (ENE) 17:48:42 437.475
NUDT-PHONESAT 20 Nov 17:42:26 17:46:01 59° 259° (W) 17:49:38 437.300
STARS 20 Nov 17:42:26 17:46:50 81° 102° (ESE) 17:51:12 437.465
XW-2C 20 Nov 17:50:47 17:54:04 29° 263° (W) 17:57:22 145.795 - 145.815
LilacSat-2 20 Nov 17:52:09 17:55:19 26° 263° (W) 17:58:31 437.200
UWE-3 20 Nov 17:54:24 17:57:04 16° 69° (ENE) 17:59:41 435.000/436.395/437.385
XW-2F 20 Nov 18:02:24 18:05:21 22° 264° (W) 18:08:19 145.980 - 146.000
SEEDS 20 Nov 18:12:31 18:16:29 47° 75° (ENE) 18:20:30 437.485
YUBILEINY 20 Nov 18:17:14 18:23:59 25° 277° (W) 18:30:44 435.215
AAUSAT CUBESAT 2 20 Nov 18:21:46 18:25:05 24° 71° (ENE) 18:28:25 437.432
CUBEBUG 2 20 Nov 18:30:28 18:35:06 79° 77° (ENE) 18:39:38 437.445
KAITUO 1B 20 Nov 18:32:50 18:34:23 12° 267° (W) 18:35:55 145.475/437.950
SRMSAT 20 Nov 18:35:23 18:39:35 20° 176° (S) 18:43:47 437.500
AO-73 20 Nov 18:36:47 18:40:00 21° 70° (ENE) 18:43:10 145.935
JUGNU 20 Nov 18:41:45 18:44:45 14° 193° (SSW) 18:47:46 437.505
Oscar 11 20 Nov 18:53:46 18:57:00 21° 70° (ENE) 19:00:15 .
CUTE-I 20 Nov 18:59:03 19:01:06 12° 268° (W) 19:03:09 437.470
ISS 20 Nov 19:05:11 19:06:23 12° 126° (SE) 19:07:35 437.550
XW-2A 20 Nov 19:13:13 19:16:26 50° 260° (W) 19:19:41 145.665 - 145.685
CUTE 1.7 + AOD 2 20 Nov 19:18:18 19:20:47 15° 266° (W) 19:23:17 437.475
ZACube-1 20 Nov 19:20:13 19:24:35 81° 79° (E) 19:28:52 437.345
HO-68 20 Nov 19:23:24 19:29:20 28° 264° (W) 19:35:20 435.675
STRAND 1 20 Nov 19:25:08 19:30:16 88° 282° (WNW) 19:35:21 437.568
UWE-3 20 Nov 19:28:58 19:33:10 39° 262° (W) 19:37:17 435.000/436.395/437.385
RS-15 20 Nov 19:50:08 20:01:43 46° 309° (NW) 20:13:20 29.354- 29.394
SEEDS 20 Nov 19:51:32 19:52:22 10° 268° (W) 19:53:13 437.485
nSIGHT-1 20 Nov 19:56:47 19:59:59 66° 134° (SE) 20:03:10 .
AAUSAT CUBESAT 2 20 Nov 19:57:19 20:00:25 21° 265° (W) 20:03:33 437.432
Max Valier Satellite 20 Nov 20:10:07 20:12:39 18° 71° (ENE) 20:15:12 145.860
EO-88 20 Nov 20:10:43 20:12:12 12° 69° (ENE) 20:13:42 145.990 - 145.960
FO-29 20 Nov 20:11:05 20:18:50 62° 100° (E) 20:26:01 435.910
AO-73 20 Nov 20:12:21 20:16:02 27° 263° (W) 20:19:40 145.935
SRMSAT 20 Nov 20:23:59 20:28:06 19° 186° (S) 20:32:13 437.500
Oscar 11 20 Nov 20:29:22 20:32:57 26° 264° (W) 20:36:34 .
DELFI C3 20 Nov 20:31:17 20:35:09 56° 76° (ENE) 20:39:03 145.870
ISS 20 Nov 20:39:20 20:42:31 48° 319° (NW) 20:45:42 437.550
SO-50 20 Nov 20:43:57 20:47:56 33° 113° (ESE) 20:51:57 436.795
NO-84 20 Nov 20:56:06 20:57:34 11° 30° (NNE) 20:59:02 435.350 FM
UNISAT 6 20 Nov 21:04:28 21:08:13 30° 97° (E) 21:11:57 437.425
TIGRISAT 20 Nov 21:08:56 21:12:42 30° 97° (E) 21:16:26 435.000
nSIGHT-1 20 Nov 21:34:54 21:36:30 13° 330° (NNW) 21:38:06 .
ESTCUBE 1 20 Nov 21:38:15 21:41:06 17° 68° (ENE) 21:43:58 437.505/2401.250
EO-88 20 Nov 21:42:15 21:45:29 31° 262° (W) 21:48:45 145.990 - 145.960
Max Valier Satellite 20 Nov 21:43:28 21:46:18 21° 264° (W) 21:49:07 145.860
FO-29 20 Nov 21:57:08 22:03:07 25° 297° (WNW) 22:08:52 435.910
LO-87 20 Nov 22:07:33 22:11:02 48° 75° (ENE) 22:14:31 145.935 - 145.965
PRISM 20 Nov 22:11:05 22:15:12 61° 100° (E) 22:19:17 437.425
RS-15 20 Nov 22:12:17 22:18:39 15° 339° (NNW) 22:24:59 29.354- 29.394
SRMSAT 20 Nov 22:14:22 22:16:34 12° 195° (SSW) 22:18:47 437.500
SO-50 20 Nov 22:24:58 22:28:25 21° 308° (NW) 22:31:53 436.795
NO-84 20 Nov 22:31:23 22:35:39 64° 47° (NE) 22:39:48 435.350 FM
UNISAT 6 20 Nov 22:41:47 22:44:41 18° 291° (WNW) 22:47:33 437.425
AIST 2D 20 Nov 22:44:44 22:48:07 43° 99° (E) 22:51:30 435.315
TIGRISAT 20 Nov 22:46:16 22:49:07 18° 291° (WNW) 22:51:57 435.000
O/OREOS (USA 219) 20 Nov 22:46:17 22:50:27 34° 66° (ENE) 22:54:33 437.305
POLYITAN 1 20 Nov 22:49:16 22:51:35 14° 94° (E) 22:53:55 437.675
PCSat 20 Nov 22:52:16 22:56:29 24° 106° (ESE) 23:00:43 145.827
SPROUT 20 Nov 22:59:21 23:03:07 30° 72° (ENE) 23:06:52 437.525
QB50P2 20 Nov 23:11:19 23:15:04 31° 98° (E) 23:18:48 145.880/145.840
ESTCUBE 1 20 Nov 23:13:27 23:17:34 36° 262° (W) 23:21:43 437.505/2401.250
VELOX 1 20 Nov 23:34:58 23:39:15 51° 74° (ENE) 23:43:35 145.980
DUCHIFAT 1 21 Nov 00:01:07 00:05:17 89° 102° (ESE) 00:09:26 145.980
50 SAT 21 Nov 00:01:43 00:03:56 17° 71° (ENE) 00:06:09 437.505
EO-79 21 Nov 00:08:10 00:12:15 54° 285° (WNW) 00:16:19 145.935-145.965
NO-84 21 Nov 00:10:41 00:12:30 13° 241° (WSW) 00:14:18 435.350 FM
NANOSAT C BR1 21 Nov 00:11:35 00:15:41 56° 285° (WNW) 00:19:46 145.865
DX 1 21 Nov 00:21:40 00:25:39 36° 72° (ENE) 00:29:40 434.975-435.025
POLYITAN 1 21 Nov 00:23:37 00:27:26 35° 287° (WNW) 00:31:14 437.675
O/OREOS (USA 219) 21 Nov 00:26:33 00:29:31 17° 260° (W) 00:32:27 437.305
RS-15 21 Nov 00:33:08 00:38:57 14° 18° (NNE) 00:44:38 29.354- 29.394
Oscar 19 21 Nov 00:34:20 00:38:29 24° 96° (E) 00:42:38 437.125/150
PCSat 21 Nov 00:34:35 00:39:36 38° 301° (WNW) 00:44:39 145.827
SPROUT 21 Nov 00:36:04 00:38:59 18° 265° (W) 00:41:55 437.525
QB50P2 21 Nov 00:47:51 00:50:34 17° 291° (WNW) 00:53:18 145.880/145.840
BUGSAT 1 21 Nov 00:54:48 00:58:50 86° 103° (ESE) 01:02:49 437.445
Gurwin Techsat 1B 21 Nov 00:57:12 01:01:49 29° 97° (E) 01:06:23 435.225
UKube-1 21 Nov 01:03:56 01:08:13 71° 76° (ENE) 01:12:32 .
VELOX 1 21 Nov 01:14:36 01:15:56 11° 268° (W) 01:17:17 145.980
50 SAT 21 Nov 01:33:46 01:35:53 16° 264° (W) 01:38:00 437.505
BEESAT 3 21 Nov 01:39:56 01:43:31 34° 113° (ESE) 01:47:09 437.485
BEESAT 21 Nov 01:54:00 01:58:11 31° 71° (ENE) 02:02:23 436.000
DX 1 21 Nov 01:59:16 02:01:53 16° 266° (W) 02:04:33 434.975-435.025
ITUPSAT 1 21 Nov 02:03:17 02:07:42 39° 72° (ENE) 02:12:09 437.325
M-CUBED/EXP-1 PRIME 21 Nov 02:09:06 02:13:21 36° 103° (ESE) 02:17:36 437.505
Oscar 19 21 Nov 02:13:12 02:17:46 33° 290° (WNW) 02:22:20 437.125/150
MOZHAYETS 4 21 Nov 02:17:24 02:21:57 75° 76° (ENE) 02:26:30
ITAMSAT 1 21 Nov 02:27:20 02:30:20 15° 94° (E) 02:33:18 435.822/435.867
nSIGHT-1 21 Nov 02:27:34 02:29:28 15° 31° (NNE) 02:31:22 .
CUBESAT XI-V 21 Nov 02:29:46 02:33:08 20° 69° (ENE) 02:36:30 437.345
Gurwin Techsat 1B 21 Nov 02:37:07 02:41:37 29° 291° (WNW) 02:46:07 435.225
RS-15 21 Nov 02:44:53 02:55:59 43° 50° (NE) 03:06:27 29.354- 29.394
BEESAT 2 21 Nov 02:50:32 02:54:28 61° 116° (ESE) 02:58:27 435.950
AO-7 21 Nov 03:04:52 03:13:04 57° 103° (ESE) 03:21:14 .
ISS 21 Nov 03:10:21 03:13:13 28° 37° (NE) 03:16:05 437.550
BEESAT 3 21 Nov 03:18:27 03:21:07 17° 308° (NW) 03:23:50 437.485
YUBILEINY 21 Nov 03:26:30 03:28:08 11° 76° (ENE) 03:29:47 435.215
BEESAT 21 Nov 03:32:17 03:35:55 22° 264° (W) 03:39:35 436.000
AO-85 21 Nov 03:40:48 03:44:39 80° 117° (ESE) 03:48:37 145.980
ITUPSAT 1 21 Nov 03:42:27 03:45:37 18° 265° (W) 03:48:47 437.325
M-CUBED/EXP-1 PRIME 21 Nov 03:44:03 03:47:24 20° 295° (WNW) 03:50:47 437.505
nSIGHT-1 21 Nov 04:02:48 04:05:55 51° 227° (SW) 04:09:00 .
ITAMSAT 1 21 Nov 04:04:59 04:10:01 51° 287° (WNW) 04:15:01 435.822/435.867
CUBESAT XI-V 21 Nov 04:06:11 04:10:15 31° 263° (W) 04:14:20 437.345
KKS-1 21 Nov 04:10:11 04:14:34 61° 75° (ENE) 04:19:00 437.445
BEESAT 2 21 Nov 04:31:19 04:32:33 11° 312° (NW) 04:33:47 435.950
STARS 21 Nov 04:34:52 04:39:02 42° 73° (ENE) 04:43:14 437.465
DOVE 4 21 Nov 04:45:10 04:50:18 72° 101° (E) 04:55:08 437.250
ISS 21 Nov 04:47:03 04:49:34 20° 231° (SW) 04:52:03 437.550
XW-2D 21 Nov 04:49:00 04:49:18 10° 93° (E) 04:49:37 145.860 - 145.880
RS-15 21 Nov 04:57:28 05:08:30 52° 251° (WSW) 05:19:02 29.354- 29.394
AO-7 21 Nov 04:58:29 05:05:17 29° 299° (WNW) 05:12:06 .
XW-2B 21 Nov 05:01:58 05:04:14 15° 94° (E) 05:06:31 145.730 - 145.750
YUBILEINY 21 Nov 05:14:37 05:23:19 76° 93° (E) 05:32:06 435.215
NUDT-PHONESAT 21 Nov 05:17:05 05:19:23 16° 95° (E) 05:21:41 437.300
SO-50 21 Nov 05:19:51 05:22:01 13° 47° (NE) 05:24:12 436.795
XW-2C 21 Nov 05:26:31 05:29:59 33° 98° (E) 05:33:27 145.795 - 145.815
LilacSat-2 21 Nov 05:28:21 05:31:56 38° 98° (E) 05:35:33 437.200
CUTE-I 21 Nov 05:36:39 05:41:34 36° 98° (E) 05:46:27 437.470
XW-2F 21 Nov 05:37:07 05:40:45 42° 99° (E) 05:44:22 145.980 - 146.000
SEEDS 21 Nov 06:02:31 06:03:30 11° 92° (E) 06:04:28 437.485
KAITUO 1B 21 Nov 06:04:55 06:08:41 80° 102° (ESE) 06:12:27 145.475/437.950
STARS 21 Nov 06:13:16 06:15:30 14° 266° (W) 06:17:46 437.465
XW-2D 21 Nov 06:20:01 06:23:36 40° 285° (WNW) 06:27:12 145.860 - 145.880
FO-29 21 Nov 06:20:32 06:24:51 18° 60° (ENE) 06:29:25 435.910
DOVE 4 21 Nov 06:25:34 06:27:12 11° 297° (WNW) 06:28:49 437.250
CUBEBUG 2 21 Nov 06:26:05 06:29:08 20° 95° (E) 06:32:10 437.445
XW-2B 21 Nov 06:35:07 06:38:24 27° 287° (WNW) 06:41:39 145.730 - 145.750
STRAND 1 21 Nov 06:36:51 06:42:00 87° 76° (ENE) 06:47:11 437.568
XW-2A 21 Nov 06:40:07 06:41:10 11° 94° (E) 06:42:14 145.665 - 145.685
NUDT-PHONESAT 21 Nov 06:50:06 06:53:10 25° 288° (WNW) 06:56:15 437.300
HO-68 21 Nov 06:53:45 07:00:57 72° 104° (ESE) 07:08:04 435.675
SO-50 21 Nov 06:58:17 07:02:55 70° 243° (WSW) 07:07:37 436.795
XW-2C 21 Nov 07:01:58 07:03:49 13° 291° (WNW) 07:05:39 145.795 - 145.815
LilacSat-2 21 Nov 07:04:25 07:05:49 12° 292° (WNW) 07:07:13 437.200
CUTE 1.7 + AOD 2 21 Nov 07:04:46 07:09:02 68° 283° (WNW) 07:13:16 437.475
ZACube-1 21 Nov 07:13:02 07:16:03 19° 95° (E) 07:19:05 437.345
XW-2F 21 Nov 07:13:46 07:14:24 10° 292° (WNW) 07:15:02 145.980 - 146.000
YUBILEINY 21 Nov 07:15:08 07:20:56 19° 291° (WNW) 07:26:50 435.215
CUTE-I 21 Nov 07:17:09 07:21:21 24° 293° (WNW) 07:25:31 437.470
UWE-3 21 Nov 07:22:00 07:26:03 52° 100° (E) 07:30:06 435.000/436.395/437.385
SEEDS 21 Nov 07:35:17 07:39:23 49° 285° (WNW) 07:43:29 437.485
AAUSAT CUBESAT 2 21 Nov 07:41:45 07:45:56 78° 102° (ESE) 07:50:07 437.432
UNISAT 6 21 Nov 07:59:56 08:03:04 19° 69° (ENE) 08:06:10 437.425
FALCONSAT 3 21 Nov 08:00:25 08:03:03 19° 150° (SSE) 08:05:42 435.103
CUBEBUG 2 21 Nov 08:02:17 08:05:41 25° 289° (WNW) 08:09:03 437.445
FO-29 21 Nov 08:02:29 08:08:52 73° 258° (WSW) 08:16:08 435.910
AO-73 21 Nov 08:03:04 08:07:12 73° 101° (ESE) 08:11:23 145.935
TIGRISAT 21 Nov 08:04:13 08:07:23 19° 69° (ENE) 08:10:30 435.000
XW-2A 21 Nov 08:10:59 08:13:53 27° 286° (WNW) 08:16:47 145.665 - 145.685
Oscar 11 21 Nov 08:19:22 08:23:42 75° 100° (E) 08:28:01 .
HO-68 21 Nov 08:43:10 08:47:54 19° 300° (WNW) 08:52:36 435.675
ZACube-1 21 Nov 08:48:49 08:52:16 26° 288° (WNW) 08:55:45 437.345
PRISM 21 Nov 08:56:41 09:00:02 25° 71° (ENE) 09:03:25 437.425
EO-88 21 Nov 09:14:21 09:17:25 25° 97° (E) 09:20:29 145.990 - 145.960
Max Valier Satellite 21 Nov 09:15:59 09:19:28 40° 99° (E) 09:22:57 145.860
PCSat 21 Nov 09:25:46 09:31:12 74° 64° (ENE) 09:36:35 145.827
UNISAT 6 21 Nov 09:35:17 09:39:29 34° 262° (W) 09:43:37 437.425
FALCONSAT 3 21 Nov 09:38:09 09:41:49 69° 163° (SSE) 09:45:29 435.103
TIGRISAT 21 Nov 09:39:37 09:43:46 34° 262° (W) 09:47:54 435.000
DELFI C3 21 Nov 09:46:18 09:50:10 48° 285° (WNW) 09:53:59 145.870
QB50P2 21 Nov 10:01:08 10:03:34 15° 68° (ENE) 10:06:01 145.880/145.840
PRISM 21 Nov 10:32:07 10:35:12 20° 264° (W) 10:38:19 437.425
AIST 2D 21 Nov 10:47:43 10:50:58 39° 261° (W) 10:54:15 435.315
EO-88 21 Nov 10:48:37 10:50:48 15° 290° (WNW) 10:52:59 145.990 - 145.960
DUCHIFAT 1 21 Nov 10:48:45 10:52:38 37° 73° (ENE) 10:56:31 145.980
EO-79 21 Nov 10:56:01 11:00:13 62° 76° (ENE) 11:04:25 145.935-145.965
NANOSAT C BR1 21 Nov 10:59:09 11:03:18 59° 75° (ENE) 11:07:28 145.865
ESTCUBE 1 21 Nov 11:09:08 11:13:38 61° 101° (E) 11:18:07 437.505/2401.250
LO-87 21 Nov 11:11:02 11:14:34 74° 283° (WNW) 11:18:03 145.935 - 145.965
POLYITAN 1 21 Nov 11:11:21 11:15:36 84° 258° (WSW) 11:19:52 437.675
PCSat 21 Nov 11:12:18 11:13:52 11° 258° (WSW) 11:15:26 145.827
BEESAT 2 21 Nov 11:13:22 11:14:59 12° 49° (NE) 11:16:35 435.950
FALCONSAT 3 21 Nov 11:17:17 11:20:58 66° 358° (N) 11:24:39 435.103
VELOX 1 21 Nov 11:30:28 11:32:35 13° 93° (E) 11:34:41 145.980
QB50P2 21 Nov 11:35:04 11:39:00 37° 262° (W) 11:42:57 145.880/145.840
BEESAT 3 21 Nov 11:36:55 11:40:51 82° 62° (ENE) 11:44:42 437.485
BUGSAT 1 21 Nov 11:40:21 11:44:08 34° 73° (ENE) 11:47:55 437.445
Oscar 19 21 Nov 11:47:37 11:51:41 24° 68° (ENE) 11:55:46 437.125/150
Gurwin Techsat 1B 21 Nov 12:14:29 12:19:09 33° 70° (ENE) 12:23:51 435.225
AO-85 21 Nov 12:14:55 12:18:57 26° 55° (NE) 12:23:10 145.980
SPROUT 21 Nov 12:23:44 12:28:00 80° 281° (WNW) 12:32:12 437.525
DUCHIFAT 1 21 Nov 12:26:06 12:28:23 14° 266° (W) 12:30:38 145.980
ESTCUBE 1 21 Nov 12:48:43 12:49:51 11° 295° (WNW) 12:51:00 437.505/2401.250
BEESAT 2 21 Nov 12:49:06 12:53:01 54° 245° (WSW) 12:56:51 435.950
M-CUBED/EXP-1 PRIME 21 Nov 12:52:13 12:54:42 18° 64° (ENE) 12:57:19 437.505
50 SAT 21 Nov 12:53:51 12:56:32 24° 98° (E) 12:59:10 437.505
O/OREOS (USA 219) 21 Nov 12:54:00 12:58:36 86° 109° (ESE) 13:03:14 437.305
UKube-1 21 Nov 12:56:00 12:58:36 15° 94° (E) 13:01:10 .
FALCONSAT 3 21 Nov 12:56:27 13:00:09 84° 194° (SSW) 13:03:51 435.103
JUGNU 21 Nov 13:02:55 13:04:40 11° 164° (SSE) 13:06:25 437.505
VELOX 1 21 Nov 13:04:57 13:09:11 44° 287° (WNW) 13:13:23 145.980
BUGSAT 1 21 Nov 13:17:00 13:19:32 15° 266° (W) 13:22:02 437.445
Oscar 19 21 Nov 13:26:15 13:30:47 32° 262° (W) 13:35:21 437.125/150
ITAMSAT 1 21 Nov 13:41:37 13:44:58 17° 65° (ENE) 13:48:19 435.822/435.867
NO-84 21 Nov 13:43:09 13:46:21 35° 125° (SE) 13:49:50 435.350 FM
DX 1 21 Nov 13:49:08 13:53:30 68° 285° (WNW) 13:57:49 434.975-435.025
Gurwin Techsat 1B 21 Nov 13:54:42 13:59:02 26° 264° (W) 14:03:25 435.225
AO-85 21 Nov 13:54:59 13:59:21 33° 247° (WSW) 14:03:56 145.980
AO-7 21 Nov 13:59:26 14:07:25 56° 67° (ENE) 14:15:27 .
BEESAT 21 Nov 14:01:00 14:01:26 10° 92° (E) 14:01:52 436.000
ITUPSAT 1 21 Nov 14:09:15 14:11:29 13° 93° (E) 14:13:43 437.325
MOZHAYETS 4 21 Nov 14:16:49 14:20:27 23° 96° (E) 14:24:03
M-CUBED/EXP-1 PRIME 21 Nov 14:26:15 14:28:57 21° 260° (W) 14:31:48 437.505
50 SAT 21 Nov 14:27:06 14:28:20 12° 291° (WNW) 14:29:33 437.505
